Tracking 21076 objects as of 9-Aug-2020
HD Live streaming from Space Station
objects crossing your sky now
Track the most recent launched group of Starlink satellites

EKRAN 1

Track EKRAN 1 now!
EKRAN 1 is classified as:


NORAD ID: 9503
Int'l Code: 1976-107A
Perigee: 35,515.6 km
Apogee: 36,072.9 km
Inclination: 8.9 °
Period: 1,436.1 minutes
Semi major axis: 42165 km
RCS: 3.5481 m2 (large)
Launch date: October 26, 1976
Source: Commonwealth of Independent States (former USSR) (CIS)
Launch site: TYURATAM MISSILE AND SPACE COMPLEX (TTMTR)
aabbcc
Your satellite tracking list
Your tracking list is empty




NASA's NSSDC Master Catalog

Two Line Element Set (TLE):
1  9503U 76107A   20221.82827237  .00000097  00000-0  00000+0 0  9999
2  9503   8.9028 299.9005 0066085 124.6083 243.6670  1.00270056177115
Source of the keplerian elements: AFSPC